Fort Myers, FL

8:54 PM EST on January 19, 2017 (GMT -0500)
Page

Weather History for KFMY - January, 2011

Change the Weather History Date:

Sunday, January 9, 2011

  Actual Average Record
Temperature  
Mean Temperature 60 °F 64 °F  
Max Temperature 71 °F 74 °F 88 °F (2013)
Min Temperature 49 °F 54 °F 32 °F (1958)
Degree Days  
Heating Degree Days 5 4  
Month to date heating degree days 16 36  
Since 1 July heating degree days 285 129  
Cooling Degree Days 0 3  
Month to date cooling degree days 22 27  
Year to date cooling degree days 22 27  
Growing Degree Days 10 (Base 50)    
Moisture  
Dew Point 43 °F    
Average Humidity 60    
Maximum Humidity 93    
Minimum Humidity 34    
Precipitation  
Precipitation 0.00 in 0.07 in 2.01 in (1961)
Month to date precipitation 0.75 0.57  
Year to date precipitation 0.75 0.57  
Sea Level Pressure  
Sea Level Pressure 30.03 in    
Wind  
Wind Speed 7 mph (ENE)    
Max Wind Speed 15 mph    
Max Gust Speed 20 mph    
Visibility 10 miles    
Events      
T = Trace of Precipitation, MM = Missing Value Source: NWS Daily Summary

Daily Weather History Graph

Daily Weather History Graph

Search for Another Location

Airport or City:

Trip Planner

Search our weather history database for the weather conditions in past years. The results will help you decide how hot, cold, wet, or windy it might be!

Date:

Astronomy

Jan. 09, 2011 Rise Set
Actual Time 7:17 AM EST 5:51 PM EST
Civil Twilight 6:52 AM EST 6:17 PM EST
Nautical Twilight 6:23 AM EST 6:45 PM EST
Astronomical Twilight 5:55 AM EST 7:13 PM EST
Moon 10:20 AM EST (1/9) 10:45 PM EST (1/9)
Length of Visible Light 11h 24m
Length of Day
10h 34m
Waxing Crescent, 25% of the Moon is Illuminated
Jan 9
Waxing Crescent
Jan 12
First Quarter
Jan 19
Full
Jan 26
Last Quarter
Feb 2
New

Hourly Weather History & Observations

Time (EST) Temp. Dew Point Humidity Pressure Visibility Wind Dir Wind Speed Gust Speed Precip Events Conditions
12:53 AM 55.0 °F 51.1 °F 86% 29.94 in 10.0 mi NNE 3.5 mph - N/A   Scattered Clouds
1:53 AM 55.0 °F 50.0 °F 83% 29.95 in 10.0 mi Calm Calm - N/A   Partly Cloudy
2:53 AM 53.1 °F 48.0 °F 83% 29.96 in 10.0 mi NE 4.6 mph - N/A   Clear
3:53 AM 54.0 °F 45.0 °F 72% 29.99 in 10.0 mi NE 9.2 mph - N/A   Mostly Cloudy
4:53 AM 52.0 °F 46.0 °F 80% 30.00 in 10.0 mi ENE 6.9 mph - N/A   Mostly Cloudy
5:53 AM 50.0 °F 44.1 °F 80% 30.00 in 10.0 mi ENE 6.9 mph - N/A   Partly Cloudy
6:15 AM 50.0 °F 44.6 °F 82% 30.00 in 10.0 mi NE 6.9 mph - N/A   Mostly Cloudy
6:36 AM 48.2 °F 44.6 °F 87% 30.01 in 10.0 mi NE 6.9 mph - N/A   Scattered Clouds
6:53 AM 48.9 °F 43.0 °F 80% 30.02 in 10.0 mi NE 5.8 mph - N/A   Clear
7:53 AM 50.0 °F 43.0 °F 77% 30.05 in 10.0 mi ENE 5.8 mph - N/A   Clear
8:53 AM 53.1 °F 39.9 °F 61% 30.07 in 10.0 mi ENE 8.1 mph - N/A   Clear
9:53 AM 55.9 °F 35.1 °F 45% 30.07 in 10.0 mi ENE 9.2 mph - N/A   Clear
10:53 AM 61.0 °F 32.0 °F 34% 30.07 in 10.0 mi East 9.2 mph - N/A   Clear
11:53 AM 63.0 °F 34.0 °F 34% 30.06 in 10.0 mi ENE 8.1 mph - N/A   Clear
12:53 PM 68.0 °F 39.9 °F 36% 30.04 in 10.0 mi ENE 10.4 mph - N/A   Clear
1:53 PM 69.1 °F 43.0 °F 39% 30.03 in 10.0 mi ESE 8.1 mph - N/A   Clear
2:53 PM 70.0 °F 44.1 °F 39% 30.02 in 10.0 mi East 6.9 mph - N/A   Clear
3:53 PM 71.1 °F 45.0 °F 39% 30.03 in 10.0 mi East 8.1 mph - N/A   Clear
4:53 PM 69.1 °F 45.0 °F 42% 30.04 in 10.0 mi East 10.4 mph - N/A   Clear
5:53 PM 64.9 °F 43.0 °F 45% 30.04 in 10.0 mi East 5.8 mph - N/A   Clear
6:53 PM 62.1 °F 44.1 °F 52% 30.06 in 10.0 mi East 4.6 mph - N/A   Partly Cloudy
7:53 PM 62.1 °F 42.1 °F 48% 30.07 in 10.0 mi ENE 5.8 mph - N/A   Clear
9:53 PM 61.0 °F 44.1 °F 54% 30.08 in 10.0 mi ESE 8.1 mph - N/A   Clear
10:53 PM 59.0 °F 46.0 °F 62% 30.08 in 10.0 mi East 5.8 mph - N/A   Clear
11:53 PM 57.9 °F 46.9 °F 67% 30.06 in 10.0 mi ESE 6.9 mph - N/A   Clear